• In Czech Republic
  • List of Countries
  • For 7 days
  • Water Temperature
  • Satellite Maps
  • Weather Map
  • Weather Widgets
  • user-avatar
    Login

    Hourly Weather Newcastle

    Today, 22 October, Sunday

    Time Temperature Precipitation Wind Pressure Humidity
    00:00 +2°C° 0 mm 2 mps 766 mmHg 72%
    01:00 +3°C° 0 mm 1 mps 766 mmHg 72%
    02:00 +2°C° 0 mm 2 mps 767 mmHg 74%
    03:00 +1°C° 0 mm 2 mps 767 mmHg 76%
    04:00 +2°C° 0 mm 1 mps 768 mmHg 77%
    05:00 +2°C° 0 mm 1 mps 768 mmHg 78%
    06:00 +2°C° 0 mm 1 mps 769 mmHg 76%
    07:00 +2°C° 0 mm 1 mps 769 mmHg 73%
    08:00 +3°C° 0 mm 1 mps 770 mmHg 71%
    09:00 +5°C° 0 mm 1 mps 770 mmHg 63%
    10:00 +7°C° 0 mm 1 mps 770 mmHg 54%
    11:00 +9°C° 0 mm 1 mps 770 mmHg 46%
    12:00 +10°C° 0 mm 1 mps 769 mmHg 44%
    13:00 +11°C° 0 mm 1 mps 769 mmHg 42%
    14:00 +12°C° 0 mm 1 mps 769 mmHg 40%
    15:00 +10°C° 0 mm 1 mps 769 mmHg 45%
    16:00 +9°C° 0 mm 1 mps 769 mmHg 51%
    17:00 +8°C° 0 mm 1 mps 769 mmHg 57%
    18:00 +6°C° 0 mm 2 mps 769 mmHg 60%
    19:00 +5°C° 0 mm 2 mps 769 mmHg 64%
    20:00 +4°C° 0 mm 2 mps 769 mmHg 67%
    21:00 +4°C° 0 mm 2 mps 769 mmHg 68%
    22:00 +4°C° 0 mm 2 mps 769 mmHg 69%
    23:00 +3°C° 0 mm 2 mps 769 mmHg 70%

    Tomorrow, 23 October, Monday

    Time Temperature Precipitation Wind Pressure Humidity
    00:00 +3°C° 0 mm 2 mps 768 mmHg 71%
    01:00 +3°C° 0 mm 2 mps 768 mmHg 72%
    02:00 +3°C° 0 mm 2 mps 768 mmHg 73%
    03:00 +3°C° 0 mm 2 mps 767 mmHg 76%
    04:00 +3°C° 0 mm 2 mps 767 mmHg 79%
    05:00 +3°C° 0 mm 2 mps 766 mmHg 82%
    06:00 +4°C° 0 mm 2 mps 766 mmHg 84%
    07:00 +5°C° 0 mm 2 mps 766 mmHg 86%
    08:00 +4°C° 0 mm 3 mps 766 mmHg 87%
    09:00 +8°C° 0 mm 3 mps 765 mmHg 84%
    10:00 +10°C° 0 mm 3 mps 765 mmHg 80%
    11:00 +12°C° 0 mm 4 mps 764 mmHg 77%
    12:00 +14°C° 0 mm 4 mps 764 mmHg 73%
    13:00 +15°C° 0 mm 4 mps 763 mmHg 70%
    14:00 +18°C° 0 mm 4 mps 762 mmHg 66%
    15:00 +17°C° 0 mm 3 mps 762 mmHg 71%
    16:00 +16°C° 0 mm 3 mps 761 mmHg 77%
    17:00 +15°C° 0 mm 2 mps 761 mmHg 82%
    18:00 +14°C° 0 mm 2 mps 761 mmHg 85%
    19:00 +13°C° 0 mm 3 mps 761 mmHg 88%
    20:00 +12°C° 0 mm 3 mps 761 mmHg 91%
    21:00 +11°C° 0 mm 3 mps 761 mmHg 92%
    22:00 +11°C° 0 mm 3 mps 761 mmHg 93%
    23:00 +11°C° 0 mm 3 mps 761 mmHg 94%

    Day after tomorrow, 24 October, Tuesday

    Time Temperature Precipitation Wind Pressure Humidity
    00:00 +11°C° 0 mm 3 mps 761 mmHg 95%
    01:00 +12°C° 0 mm 3 mps 761 mmHg 95%
    02:00 +12°C° 0 mm 3 mps 761 mmHg 96%
    03:00 +13°C° 0 mm 3 mps 761 mmHg 95%
    04:00 +13°C° 0 mm 3 mps 761 mmHg 95%
    05:00 +13°C° 0 mm 3 mps 760 mmHg 95%
    06:00 +14°C° 0 mm 3 mps 761 mmHg 94%
    07:00 +14°C° 0 mm 3 mps 761 mmHg 94%
    08:00 +14°C° 0 mm 3 mps 761 mmHg 94%
    09:00 +16°C° 0 mm 3 mps 760 mmHg 88%
    10:00 +18°C° 0 mm 4 mps 760 mmHg 82%
    11:00 +20°C° 0 mm 4 mps 760 mmHg 76%
    12:00 +20°C° 0 mm 4 mps 760 mmHg 75%
    13:00 +21°C° 0 mm 4 mps 760 mmHg 74%
    14:00 +21°C° 0 mm 4 mps 759 mmHg 73%
    15:00 +20°C° 0 mm 4 mps 759 mmHg 76%
    16:00 +20°C° 0 mm 3 mps 759 mmHg 79%
    17:00 +19°C° 0 mm 3 mps 759 mmHg 82%
    18:00 +18°C° 0 mm 3 mps 759 mmHg 84%
    19:00 +18°C° 0 mm 4 mps 759 mmHg 87%
    20:00 +17°C° 0 mm 4 mps 759 mmHg 90%
    21:00 +17°C° 0 mm 4 mps 759 mmHg 90%
    22:00 +17°C° 0 mm 4 mps 759 mmHg 89%
    23:00 +17°C° 0 mm 4 mps 758 mmHg 89%

    25 October, Wednesday

    Time Temperature Precipitation Wind Pressure Humidity
    00:00 +17°C° 0 mm 5 mps 758 mmHg 89%
    01:00 +17°C° 0 mm 5 mps 758 mmHg 88%
    02:00 +17°C° 0 mm 5 mps 757 mmHg 88%
    03:00 +17°C° 0 mm 5 mps 757 mmHg 87%
    04:00 +19°C° 0 mm 5 mps 756 mmHg 87%
    05:00 +19°C° 0 mm 5 mps 756 mmHg 86%
    06:00 +19°C° 0 mm 5 mps 756 mmHg 86%
    07:00 +19°C° 0 mm 5 mps 756 mmHg 85%
    08:00 +19°C° 0 mm 5 mps 755 mmHg 85%
    09:00 +20°C° 0 mm 6 mps 755 mmHg 83%
    10:00 +20°C° 0 mm 6 mps 755 mmHg 82%
    11:00 +20°C° 0 mm 6 mps 755 mmHg 80%
    12:00 +21°C° 0.2 mm 6 mps 754 mmHg 78%
    13:00 +21°C° 0.2 mm 6 mps 754 mmHg 77%
    14:00 +21°C° 0.2 mm 6 mps 753 mmHg 75%
    15:00 +21°C° 0.1 mm 5 mps 753 mmHg 76%
    16:00 +21°C° 0.1 mm 5 mps 753 mmHg 78%
    17:00 +20°C° 0.1 mm 5 mps 753 mmHg 80%
    18:00 +20°C° 0.3 mm 5 mps 753 mmHg 81%
    19:00 +20°C° 0.3 mm 5 mps 753 mmHg 81%
    20:00 +20°C° 0.3 mm 6 mps 753 mmHg 82%
    21:00 +20°C° 0.2 mm 6 mps 753 mmHg 81%
    22:00 +20°C° 0.2 mm 6 mps 753 mmHg 81%
    23:00 +21°C° 0.2 mm 7 mps 752 mmHg 81%

    26 October, Thursday

    Time Temperature Precipitation Wind Pressure Humidity
    00:00 +21°C° 0.5 mm 7 mps 752 mmHg 80%
    01:00 +21°C° 0.5 mm 7 mps 752 mmHg 79%
    02:00 +21°C° 0.5 mm 7 mps 751 mmHg 79%
    03:00 +21°C° 0.2 mm 7 mps 751 mmHg 78%
    04:00 +21°C° 0.2 mm 8 mps 751 mmHg 78%
    05:00 +21°C° 0.2 mm 8 mps 751 mmHg 78%
    06:00 +21°C° 0.2 mm 8 mps 751 mmHg 77%
    07:00 +21°C° 0.2 mm 8 mps 751 mmHg 77%
    08:00 +22°C° 0.2 mm 8 mps 751 mmHg 76%
    09:00 +22°C° 0.2 mm 8 mps 751 mmHg 74%
    10:00 +22°C° 0.2 mm 9 mps 750 mmHg 72%
    11:00 +23°C° 0.2 mm 9 mps 750 mmHg 70%
    12:00 +23°C° 0.2 mm 9 mps 750 mmHg 69%
    13:00 +23°C° 0.2 mm 9 mps 750 mmHg 68%
    14:00 +23°C° 0.2 mm 8 mps 749 mmHg 67%
    15:00 +22°C° 1.2 mm 8 mps 749 mmHg 71%
    16:00 +22°C° 1.2 mm 7 mps 749 mmHg 75%
    17:00 +21°C° 1.2 mm 7 mps 749 mmHg 79%
    18:00 +20°C° 2.8 mm 6 mps 749 mmHg 84%
    19:00 +19°C° 2.8 mm 5 mps 750 mmHg 88%
    20:00 +18°C° 2.8 mm 3 mps 750 mmHg 93%
    21:00 +17°C° 1.7 mm 3 mps 750 mmHg 93%
    22:00 +16°C° 1.7 mm 3 mps 750 mmHg 93%
    23:00 +16°C° 1.7 mm 3 mps 750 mmHg 93%

    27 October, Friday

    Time Temperature Precipitation Wind Pressure Humidity
    00:00 +14°C° 0.6 mm 3 mps 751 mmHg 92%
    01:00 +14°C° 0.6 mm 3 mps 751 mmHg 92%
    02:00 +14°C° 0.6 mm 3 mps 751 mmHg 91%
    03:00 +13°C° 0.1 mm 3 mps 752 mmHg 92%
    04:00 +14°C° 0.1 mm 2 mps 753 mmHg 93%
    05:00 +13°C° 0.1 mm 2 mps 753 mmHg 94%
    06:00 +13°C° 0 mm 2 mps 754 mmHg 92%
    07:00 +13°C° 0 mm 2 mps 754 mmHg 91%
    08:00 +13°C° 0 mm 2 mps 755 mmHg 89%
    09:00 +13°C° 0 mm 2 mps 755 mmHg 84%
    10:00 +12°C° 0 mm 3 mps 756 mmHg 79%
    11:00 +13°C° 0 mm 3 mps 756 mmHg 75%
    12:00 +13°C° 0 mm 3 mps 756 mmHg 72%
    13:00 +14°C° 0 mm 4 mps 756 mmHg 69%
    14:00 +14°C° 0 mm 4 mps 756 mmHg 66%
    15:00 +13°C° 0 mm 3 mps 757 mmHg 68%
    16:00 +13°C° 0 mm 3 mps 757 mmHg 71%
    17:00 +12°C° 0 mm 3 mps 757 mmHg 74%
    18:00 +11°C° 0 mm 3 mps 758 mmHg 75%
    19:00 +11°C° 0 mm 3 mps 758 mmHg 76%
    20:00 +10°C° 0 mm 3 mps 758 mmHg 78%
    21:00 +10°C° 0 mm 3 mps 758 mmHg 80%
    22:00 +9°C° 0 mm 3 mps 758 mmHg 81%
    23:00 +9°C° 0 mm 3 mps 758 mmHg 83%
    Show more